Hourly Weather Barnab

Today, 6 May, Thursday

Time Temperature Precipitation Wind Pressure Humidity
00:00 +2°C° 0.1 mm 1 mps 610 mmHg 84%
01:00 +1°C° 0.1 mm 1 mps 610 mmHg 86%
02:00 +1°C° 0.1 mm 1 mps 610 mmHg 89%
03:00 +3°C° 0 mm 1 mps 610 mmHg 94%
04:00 +3°C° 0.1 mm 1 mps 610 mmHg 94%
05:00 +4°C° 0.1 mm 1 mps 610 mmHg 94%
06:00 +3°C° 0.1 mm 2 mps 610 mmHg 94%
07:00 +4°C° 0 mm 2 mps 610 mmHg 91%
08:00 +5°C° 0 mm 2 mps 610 mmHg 89%
09:00 +6°C° 0 mm 2 mps 610 mmHg 86%
10:00 +7°C° 0 mm 2 mps 610 mmHg 81%
11:00 +8°C° 0 mm 2 mps 611 mmHg 77%
12:00 +9°C° 0 mm 2 mps 611 mmHg 72%
13:00 +9°C° 0 mm 2 mps 611 mmHg 71%
14:00 +10°C° 0 mm 2 mps 610 mmHg 70%
15:00 +10°C° 0 mm 2 mps 610 mmHg 69%
16:00 +9°C° 0 mm 2 mps 610 mmHg 71%
17:00 +10°C° 0 mm 1 mps 610 mmHg 74%
18:00 +9°C° 0 mm 1 mps 610 mmHg 76%
19:00 +8°C° 0 mm 1 mps 610 mmHg 79%
20:00 +7°C° 0 mm 1 mps 610 mmHg 81%
21:00 +5°C° 0 mm 1 mps 609 mmHg 84%
22:00 +5°C° 0 mm 1 mps 609 mmHg 82%
23:00 +4°C° 0 mm 1 mps 609 mmHg 80%

Tomorrow, 7 May, Friday

Time Temperature Precipitation Wind Pressure Humidity
00:00 +4°C° 0 mm 1 mps 609 mmHg 78%
01:00 +4°C° 0 mm 1 mps 609 mmHg 73%
02:00 +4°C° 0 mm 1 mps 609 mmHg 68%
03:00 +4°C° 0 mm 1 mps 609 mmHg 62%
04:00 +5°C° 0 mm 1 mps 609 mmHg 58%
05:00 +6°C° 0 mm 1 mps 610 mmHg 55%
06:00 +7°C° 0 mm 1 mps 610 mmHg 51%
07:00 +9°C° 0 mm 1 mps 611 mmHg 50%
08:00 +10°C° 0 mm 1 mps 611 mmHg 48%
09:00 +12°C° 0 mm 1 mps 612 mmHg 47%
10:00 +12°C° 0 mm 1 mps 612 mmHg 50%
11:00 +13°C° 0 mm 2 mps 612 mmHg 53%
12:00 +14°C° 0 mm 2 mps 612 mmHg 57%
13:00 +13°C° 0.2 mm 2 mps 612 mmHg 61%
14:00 +13°C° 0.2 mm 2 mps 612 mmHg 65%
15:00 +13°C° 0.2 mm 2 mps 612 mmHg 70%
16:00 +12°C° 0.3 mm 2 mps 612 mmHg 75%
17:00 +11°C° 0.3 mm 1 mps 612 mmHg 80%
18:00 +10°C° 0.3 mm 1 mps 612 mmHg 86%
19:00 +10°C° 0.1 mm 1 mps 612 mmHg 87%
20:00 +9°C° 0.1 mm 1 mps 613 mmHg 89%
21:00 +8°C° 0.1 mm 1 mps 613 mmHg 90%
22:00 +8°C° 0.1 mm 1 mps 613 mmHg 90%
23:00 +8°C° 0.1 mm 1 mps 613 mmHg 91%

Day after tomorrow, 8 May, Saturday

Time Temperature Precipitation Wind Pressure Humidity
00:00 +7°C° 0.1 mm 0 mps 613 mmHg 91%
01:00 +6°C° 0 mm 0 mps 613 mmHg 90%
02:00 +7°C° 0 mm 1 mps 613 mmHg 89%
03:00 +6°C° 0 mm 1 mps 612 mmHg 89%
04:00 +7°C° 0 mm 1 mps 613 mmHg 87%
05:00 +7°C° 0 mm 1 mps 613 mmHg 86%
06:00 +7°C° 0 mm 1 mps 613 mmHg 84%
07:00 +9°C° 0 mm 1 mps 613 mmHg 81%
08:00 +9°C° 0 mm 2 mps 614 mmHg 77%
09:00 +10°C° 0 mm 2 mps 614 mmHg 74%
10:00 +12°C° 0 mm 2 mps 614 mmHg 71%
11:00 +12°C° 0 mm 3 mps 614 mmHg 69%
12:00 +13°C° 0 mm 3 mps 614 mmHg 66%
13:00 +13°C° 0 mm 3 mps 614 mmHg 67%
14:00 +14°C° 0 mm 2 mps 614 mmHg 68%
15:00 +14°C° 0 mm 2 mps 614 mmHg 69%
16:00 +14°C° 0 mm 2 mps 614 mmHg 72%
17:00 +13°C° 0 mm 2 mps 614 mmHg 75%
18:00 +12°C° 0 mm 2 mps 614 mmHg 77%
19:00 +10°C° 0 mm 2 mps 613 mmHg 80%
20:00 +9°C° 0 mm 2 mps 613 mmHg 84%
21:00 +7°C° 0 mm 2 mps 612 mmHg 87%
22:00 +7°C° 0 mm 2 mps 612 mmHg 85%
23:00 +7°C° 0 mm 2 mps 612 mmHg 83%

9 May, Sunday

Time Temperature Precipitation Wind Pressure Humidity
00:00 +7°C° 0 mm 2 mps 612 mmHg 81%
01:00 +7°C° 0 mm 2 mps 612 mmHg 80%
02:00 +7°C° 0 mm 2 mps 611 mmHg 79%
03:00 +6°C° 0 mm 2 mps 611 mmHg 79%
04:00 +7°C° 0 mm 2 mps 611 mmHg 77%
05:00 +8°C° 0 mm 2 mps 611 mmHg 75%
06:00 +9°C° 0 mm 2 mps 611 mmHg 74%
07:00 +11°C° 0 mm 3 mps 612 mmHg 70%
08:00 +12°C° 0 mm 3 mps 612 mmHg 67%
09:00 +14°C° 0 mm 4 mps 612 mmHg 64%
10:00 +15°C° 0 mm 4 mps 612 mmHg 62%
11:00 +17°C° 0 mm 4 mps 612 mmHg 60%
12:00 +17°C° 0 mm 4 mps 612 mmHg 58%
13:00 +17°C° 0 mm 4 mps 612 mmHg 59%
14:00 +17°C° 0 mm 4 mps 612 mmHg 59%
15:00 +18°C° 0 mm 4 mps 611 mmHg 59%
16:00 +15°C° 0.2 mm 4 mps 611 mmHg 68%
17:00 +14°C° 0.2 mm 3 mps 611 mmHg 76%
18:00 +12°C° 0.2 mm 3 mps 611 mmHg 85%
19:00 +11°C° 0.4 mm 3 mps 611 mmHg 87%
20:00 +12°C° 0.4 mm 2 mps 610 mmHg 89%
21:00 +10°C° 0.4 mm 2 mps 610 mmHg 91%
22:00 +9°C° 1.9 mm 2 mps 610 mmHg 93%
23:00 +9°C° 1.9 mm 2 mps 610 mmHg 95%

10 May, Monday

Time Temperature Precipitation Wind Pressure Humidity
00:00 +9°C° 1.9 mm 2 mps 609 mmHg 96%
01:00 +9°C° 1.4 mm 2 mps 609 mmHg 97%
02:00 +8°C° 1.4 mm 2 mps 609 mmHg 98%
03:00 +8°C° 1.4 mm 2 mps 609 mmHg 98%
04:00 +7°C° 1 mm 3 mps 609 mmHg 98%
05:00 +7°C° 1 mm 3 mps 608 mmHg 98%
06:00 +5°C° 1 mm 3 mps 608 mmHg 97%
07:00 +4°C° 2.3 mm 3 mps 608 mmHg 97%
08:00 +3°C° 2.3 mm 3 mps 609 mmHg 97%
09:00 +1°C° 2.3 mm 3 mps 609 mmHg 97%
10:00 +1°C° 3.3 mm 3 mps 609 mmHg 96%
11:00 +1°C° 3.3 mm 3 mps 610 mmHg 96%
12:00 +2°C° 3.3 mm 2 mps 610 mmHg 95%
13:00 +2°C° 0.3 mm 3 mps 610 mmHg 92%
14:00 +3°C° 0.3 mm 3 mps 610 mmHg 88%
15:00 +3°C° 0.3 mm 3 mps 611 mmHg 84%
16:00 +3°C° 0 mm 3 mps 611 mmHg 85%
17:00 +2°C° 0 mm 3 mps 611 mmHg 85%
18:00 +3°C° 0 mm 2 mps 611 mmHg 86%
19:00 +1°C° 0 mm 2 mps 611 mmHg 86%
20:00 -2°C° 0 mm 2 mps 612 mmHg 86%
21:00 -4°C° 0 mm 3 mps 612 mmHg 86%
22:00 -3°C° 0 mm 2 mps 612 mmHg 86%
23:00 -3°C° 0 mm 2 mps 612 mmHg 85%

11 May, Tuesday

Time Temperature Precipitation Wind Pressure Humidity
00:00 -3°C° 0 mm 2 mps 611 mmHg 84%
01:00 -3°C° 0 mm 2 mps 611 mmHg 85%
02:00 -3°C° 0 mm 2 mps 611 mmHg 86%
03:00 -3°C° 0 mm 2 mps 611 mmHg 87%
04:00 -2°C° 0 mm 2 mps 611 mmHg 88%
05:00 -1°C° 0 mm 2 mps 611 mmHg 90%
06:00 +1°C° 0 mm 2 mps 611 mmHg 91%
07:00 +2°C° 0 mm 3 mps 611 mmHg 92%
08:00 +3°C° 0 mm 3 mps 612 mmHg 93%
09:00 +4°C° 0 mm 3 mps 612 mmHg 93%
10:00 +5°C° 0 mm 3 mps 612 mmHg 92%
11:00 +6°C° 0 mm 4 mps 612 mmHg 91%
12:00 +7°C° 0 mm 4 mps 612 mmHg 89%
13:00 +8°C° 0 mm 4 mps 612 mmHg 87%
14:00 +9°C° 0 mm 3 mps 612 mmHg 85%
15:00 +10°C° 0 mm 3 mps 612 mmHg 83%
16:00 +10°C° 0 mm 3 mps 612 mmHg 85%
17:00 +9°C° 0 mm 3 mps 612 mmHg 86%
18:00 +9°C° 0 mm 2 mps 612 mmHg 87%
19:00 +8°C° 0 mm 2 mps 612 mmHg 87%
20:00 +6°C° 0 mm 2 mps 612 mmHg 87%
21:00 +5°C° 0 mm 2 mps 612 mmHg 88%
22:00 +5°C° 0 mm 2 mps 612 mmHg 86%
23:00 +5°C° 0 mm 2 mps 612 mmHg 85%
Show more